Location: Cudham
(51.3000°N, 0.0667°E)
Time: 01:28:33
(UTC+00:00)

PKM - Pass Details

Date: 19 May 2025
Orbit: 411 x 13725 km, 55.3° (Epoch: 18 June)

Event Time Altitude Azimuth Distance (km) Brightness Sun altitude
Rises 22:16:35 0° 238° (WSW) 2,450 7.1 -15.4°
Reaches altitude 10° 22:18:28 10° 237° (WSW) 1,483 5.9 -15.6°
Maximum altitude 22:21:09 76° 152° (SSE) 473 3.3 -15.7°
Drops below altitude 10° 22:25:10 10° 65° (ENE) 2,189 6.9 -16.0°
Sets 22:28:37 0° 65° (ENE) 3,899 8.2 -16.2°
